Weather History for KSMQ - January, 2012

Change the Weather History Date:

Thursday, January 12, 2012

  Actual Average Record
Temperature  
Mean Temperature 44 °F -  
Max Temperature 46 °F 35 °F 65 °F (1975)
Min Temperature 41 °F 16 °F -12 °F (1981)
Degree Days  
Heating Degree Days 22    
Moisture  
Dew Point 41 °F    
Average Humidity 91    
Maximum Humidity 100    
Minimum Humidity 81    
Precipitation  
Precipitation 1.02 in - - ()
Sea Level Pressure  
Sea Level Pressure 29.51 in    
Wind  
Wind Speed 6 mph (ENE)    
Max Wind Speed 14 mph    
Max Gust Speed 26 mph    
Visibility 5 miles    
Events Rain    
Averages and records for this station are not official NWS values.
T = Trace of Precipitation, MM = Missing Value Source: NWS Daily Summary

Daily Weather History Graph

Daily Weather History Graph

Search for Another Location

Airport or City:

Trip Planner

Search our weather history database for the weather conditions in past years. The results will help you decide how hot, cold, wet, or windy it might be!

Date:

Astronomy

Jan. 12, 2012 Rise Set
Actual Time 7:21 AM EST 4:52 PM EST
Civil Twilight 6:51 AM EST 5:22 PM EST
Nautical Twilight 6:17 AM EST 5:56 PM EST
Astronomical Twilight 5:44 AM EST 6:29 PM EST
Moon 8:56 PM EST (1/12) 9:02 AM EST (1/12)
Length of Visible Light 10h 31m
Length of Day
9h 30m
Waning Gibbous, 87% of the Moon is Illuminated
Jan 12
Waning Gibbous
Jan 16
Last Quarter
Jan 23
New
Jan 30
First Quarter
Feb 7
Full

Hourly Weather History & Observations

Time (EST) Temp. Windchill Dew Point Humidity Pressure Visibility Wind Dir Wind Speed Gust Speed Precip Events Conditions
12:53 AM 41.0 °F 37.1 °F 39.0 °F 93% 29.74 in 5.0 mi ENE 5.8 mph - 0.08 in Rain Rain
1:53 AM 43.0 °F 37.2 °F 39.9 °F 89% 29.68 in 5.0 mi ENE 10.4 mph 20.7 mph 0.14 in Rain Rain
2:05 AM 42.8 °F 37.0 °F 39.2 °F 87% 29.67 in 5.0 mi East 10.4 mph 20.7 mph 0.03 in Rain Light Rain
2:53 AM 44.1 °F 39.5 °F 41.0 °F 89% 29.63 in 6.0 mi ENE 8.1 mph 16.1 mph 0.07 in Rain Light Rain
3:53 AM 45.0 °F 41.2 °F 43.0 °F 93% 29.58 in 4.0 mi ENE 6.9 mph - 0.10 in Rain Light Rain
4:53 AM 46.0 °F 41.9 °F 43.0 °F 89% 29.51 in 4.0 mi ENE 8.1 mph 21.9 mph 0.08 in Rain Light Rain
5:53 AM 46.9 °F - 44.1 °F 90% 29.47 in 5.0 mi ENE 12.7 mph 21.9 mph 0.09 in Rain Light Rain
6:33 AM 46.4 °F 41.5 °F 44.6 °F 93% 29.46 in 2.5 mi ENE 10.4 mph 18.4 mph 0.17 in Rain Rain
6:44 AM 46.4 °F 42.4 °F 44.6 °F 93% 29.45 in 3.0 mi ENE 8.1 mph 19.6 mph 0.23 in Rain Rain
6:53 AM 46.0 °F 41.4 °F 44.1 °F 93% 29.46 in 3.0 mi ENE 9.2 mph - 0.27 in Rain Rain
7:01 AM 46.4 °F 42.4 °F 42.8 °F 87% 29.46 in 3.0 mi NE 8.1 mph - 0.03 in Rain Rain
7:11 AM 44.6 °F 42.2 °F 42.8 °F 93% 29.46 in 2.0 mi Variable 4.6 mph - 0.12 in Rain Heavy Rain
7:24 AM 46.4 °F 40.4 °F 42.8 °F 87% 29.46 in 4.0 mi NNE 13.8 mph 20.7 mph 0.17 in Rain Rain
7:53 AM 46.0 °F 42.5 °F 42.1 °F 86% 29.46 in 8.0 mi Variable 6.9 mph 18.4 mph 0.18 in Rain Light Rain
8:19 AM 44.6 °F 41.4 °F 42.8 °F 93% 29.45 in 10.0 mi Variable 5.8 mph 17.3 mph 0.00 in   Overcast
8:53 AM 45.0 °F 38.9 °F 41.0 °F 86% 29.45 in 10.0 mi NE 12.7 mph 25.3 mph 0.00 in   Overcast
9:35 AM 46.4 °F 41.9 °F 41.0 °F 81% 29.42 in 10.0 mi NE 9.2 mph 26.5 mph N/A   Overcast
9:53 AM 45.0 °F 39.3 °F 41.0 °F 86% 29.44 in 10.0 mi NNE 11.5 mph 21.9 mph N/A   Overcast
10:53 AM 44.1 °F 40.8 °F 39.9 °F 85% 29.47 in 7.0 mi Variable 5.8 mph - 0.00 in Rain Light Rain
11:53 AM 43.0 °F 38.8 °F 39.9 °F 89% 29.46 in 10.0 mi NE 6.9 mph - 0.01 in   Overcast
12:53 PM 44.1 °F - 39.9 °F 85% 29.47 in 10.0 mi Calm Calm - N/A   Overcast
1:53 PM 44.1 °F - 41.0 °F 89% 29.47 in 4.0 mi Calm Calm - 0.00 in   Overcast
2:53 PM 44.1 °F - 41.0 °F 89% 29.48 in 4.0 mi Calm Calm - N/A   Overcast
3:53 PM 43.0 °F - 41.0 °F 93% 29.52 in 10.0 mi Calm Calm - N/A   Overcast
4:25 PM 42.8 °F - 39.2 °F 87% 29.52 in 9.0 mi Calm Calm - N/A   Overcast
4:53 PM 43.0 °F - 39.9 °F 89% 29.52 in 10.0 mi Calm Calm - N/A   Overcast
5:53 PM 43.0 °F - 39.9 °F 89% 29.54 in 10.0 mi Calm Calm - N/A   Overcast
6:32 PM 42.8 °F - 39.2 °F 87% 29.54 in 6.0 mi Calm Calm - N/A   Overcast
6:53 PM 42.1 °F - 39.9 °F 92% 29.54 in 4.0 mi Calm Calm - N/A   Overcast
7:53 PM 42.1 °F - 39.9 °F 92% 29.54 in 6.0 mi Calm Calm - N/A   Overcast
8:15 PM 42.8 °F - 39.2 °F 87% 29.53 in 5.0 mi Calm Calm - N/A   Overcast
8:53 PM 42.1 °F - 39.9 °F 92% 29.54 in 3.0 mi Calm Calm - N/A   Overcast
9:24 PM 42.8 °F - 41.0 °F 93% 29.52 in 2.0 mi Calm Calm - N/A   Overcast
9:33 PM 42.8 °F - 41.0 °F 93% 29.52 in 1.5 mi Calm Calm - N/A   Overcast
9:53 PM 42.1 °F - 41.0 °F 96% 29.52 in 1.2 mi Calm Calm - N/A   Overcast
10:51 PM 42.8 °F - 42.8 °F 100% 29.49 in 0.8 mi Calm Calm - N/A   Overcast
10:53 PM 43.0 °F - 42.1 °F 97% 29.49 in 0.8 mi Calm Calm - N/A   Overcast
11:19 PM 42.8 °F - 42.8 °F 100% 29.47 in 1.0 mi Calm Calm - N/A   Overcast
11:40 PM 42.8 °F 41.1 °F 42.8 °F 100% 29.45 in 2.0 mi East 3.5 mph - N/A   Overcast
11:53 PM 43.0 °F 40.3 °F 42.1 °F 97% 29.45 in 4.0 mi ESE 4.6 mph - N/A   Overcast